Easton, MD

1:58 AM EDT on August 27, 2016 (GMT -0400)
Easton / Newnam

Weather History for KESN - February, 2013

Change the Weather History Date:

Saturday, February 16, 2013

  Actual Average Record
Temperature  
Mean Temperature 35 °F -  
Max Temperature 38 °F 49 °F 75 °F (1954)
Min Temperature 32 °F 30 °F 8 °F (2015)
Degree Days  
Heating Degree Days 30    
Moisture  
Dew Point 33 °F    
Average Humidity 94    
Maximum Humidity 100    
Minimum Humidity 65    
Precipitation  
Precipitation 0.00 in - - ()
Sea Level Pressure  
Sea Level Pressure 29.95 in    
Wind  
Wind Speed 7 mph (North)    
Max Wind Speed 12 mph    
Max Gust Speed 18 mph    
Visibility 9 miles    
Events Rain , Snow    
Averages and records for this station are not official NWS values.
T = Trace of Precipitation, MM = Missing Value Source: NWS Daily Summary

Daily Weather History Graph

Daily Weather History Graph

Search for Another Location

Airport or City:

Trip Planner

Search our weather history database for the weather conditions in past years. The results will help you decide how hot, cold, wet, or windy it might be!

Date:

Astronomy

Feb. 16, 2013 Rise Set
Actual Time 6:53 AM EST 5:43 PM EST
Civil Twilight 6:26 AM EST 6:10 PM EST
Nautical Twilight 5:55 AM EST 6:41 PM EST
Astronomical Twilight 5:24 AM EST 7:12 PM EST
Moon 10:09 AM EST (2/16) No Moon Set
Length of Visible Light 11h 43m
Length of Day
10h 49m
Waxing Crescent, 39% of the Moon is Illuminated
Feb 16
Waxing Crescent
Feb 17
First Quarter
Feb 25
Full
Mar 4
Last Quarter
Mar 11
New

Hourly Weather History & Observations

Time (EST) Temp. Windchill Dew Point Humidity Pressure Visibility Wind Dir Wind Speed Gust Speed Precip Events Conditions
12:17 AM 38.3 °F 31.4 °F 36.1 °F 92% 30.05 in 10.0 mi North 10.4 mph - N/A   Overcast
12:37 AM 37.4 °F 30.3 °F 36.5 °F 97% 30.05 in 10.0 mi NNW 10.4 mph - N/A   Drizzle
12:57 AM 37.0 °F 31.6 °F 37.0 °F 100% 30.04 in 10.0 mi NNE 6.9 mph - N/A   Overcast
1:17 AM 36.7 °F 29.4 °F 36.7 °F 100% 30.03 in 10.0 mi NNE 10.4 mph - N/A   Overcast
1:37 AM 36.5 °F 31.8 °F 36.5 °F 100% 30.04 in 10.0 mi North 5.8 mph - N/A   Overcast
1:57 AM 36.1 °F 31.4 °F 36.1 °F 100% 30.03 in 10.0 mi North 5.8 mph - N/A   Drizzle
2:17 AM 36.0 °F 33.3 °F 36.0 °F 100% 30.02 in 10.0 mi North 3.5 mph - N/A   Light Drizzle
2:37 AM 36.0 °F 31.1 °F 36.0 °F 100% 30.03 in 10.0 mi NNW 5.8 mph - N/A   Overcast
3:17 AM 35.6 °F 32.8 °F 35.6 °F 100% 30.01 in 10.0 mi NNW 3.5 mph - N/A   Drizzle
3:37 AM 35.6 °F 30.7 °F 35.6 °F 100% 29.99 in 10.0 mi North 5.8 mph - N/A   Light Drizzle
3:57 AM 35.6 °F - 35.6 °F 100% 30.00 in 10.0 mi Calm Calm - N/A   Overcast
4:17 AM 35.6 °F 32.8 °F 35.6 °F 100% 29.99 in 10.0 mi North 3.5 mph - N/A   Overcast
4:37 AM 35.8 °F 33.0 °F 35.8 °F 100% 30.00 in 10.0 mi NNW 3.5 mph - N/A   Overcast
5:53 AM 35.6 °F 30.7 °F 35.6 °F 100% 29.98 in 10.0 mi North 5.8 mph - N/A   Overcast
5:57 AM 36.0 °F 32.1 °F 36.0 °F 100% 29.98 in 10.0 mi NNE 4.6 mph - N/A   Overcast
6:17 AM 35.8 °F 31.9 °F 35.8 °F 100% 29.98 in 10.0 mi North 4.6 mph - N/A   Overcast
6:37 AM 35.6 °F 30.7 °F 35.6 °F 100% 30.00 in 10.0 mi NNW 5.8 mph - N/A   Overcast
6:41 AM 35.6 °F 31.7 °F 35.6 °F 100% 30.00 in 10.0 mi NNW 4.6 mph - N/A   Overcast
6:53 AM 35.6 °F 31.7 °F 35.6 °F 100% 29.99 in 10.0 mi NNW 4.6 mph - N/A   Overcast
7:25 AM 35.6 °F - 35.6 °F 100% 30.00 in 10.0 mi Calm Calm - N/A   Overcast
7:53 AM 37.4 °F 32.8 °F 37.4 °F 100% 29.98 in 10.0 mi North 5.8 mph - N/A   Overcast
8:53 AM 35.6 °F 29.2 °F 35.6 °F 100% 29.99 in 10.0 mi NNE 8.1 mph - N/A Rain , Snow Light Rain
9:50 AM 35.6 °F 30.7 °F 35.6 °F 100% 29.98 in 6.0 mi NNE 5.8 mph - N/A Rain Light Rain
10:46 AM 37.4 °F 32.1 °F 37.4 °F 100% 29.97 in 6.0 mi NNE 6.9 mph - N/A   Light Drizzle
11:47 AM 37.4 °F 32.1 °F 35.6 °F 93% 29.95 in 6.0 mi NNE 6.9 mph - N/A   Overcast
12:14 PM 37.4 °F 30.8 °F 35.6 °F 93% 29.94 in 7.0 mi NNE 9.2 mph - N/A   Overcast
12:50 PM 37.4 °F 32.1 °F 35.6 °F 93% 29.93 in 5.0 mi NNE 6.9 mph - N/A Rain Rain
1:54 PM 35.6 °F 29.2 °F 35.6 °F 100% 29.91 in 3.0 mi East 8.1 mph - N/A Rain Light Rain
2:55 PM 35.6 °F 29.2 °F 35.6 °F 100% 29.90 in 3.0 mi North 8.1 mph - N/A Rain Light Rain
3:58 PM 33.8 °F 27.0 °F 33.8 °F 100% 29.89 in 2.0 mi North 8.1 mph - N/A Rain Light Rain
4:57 PM 33.8 °F 27.0 °F 33.8 °F 100% 29.90 in 5.0 mi North 8.1 mph - N/A   Scattered Clouds
5:52 PM 32.0 °F 24.8 °F 32.0 °F 100% 29.88 in 3.0 mi North 8.1 mph - N/A Snow Light Snow
6:52 PM 32.0 °F 24.2 °F 32.0 °F 100% 29.87 in 10.0 mi NNE 9.2 mph - N/A   Partly Cloudy
7:52 PM 32.0 °F 25.6 °F 32.0 °F 100% 29.88 in 10.0 mi North 6.9 mph - N/A   Partly Cloudy
8:50 PM 32.0 °F 24.8 °F 26.6 °F 80% 29.86 in 10.0 mi North 8.1 mph - N/A   Clear
9:59 PM 32.9 °F 25.9 °F 24.6 °F 72% 29.86 in 10.0 mi North 8.1 mph - N/A   Clear
10:19 PM 32.9 °F 24.7 °F 23.5 °F 68% 29.85 in 10.0 mi North 10.4 mph 18.4 mph N/A   Clear
10:39 PM 32.9 °F 25.3 °F 22.5 °F 65% 29.85 in 10.0 mi North 9.2 mph 17.3 mph N/A   Clear
10:59 PM 32.7 °F 24.5 °F 22.5 °F 66% 29.84 in 10.0 mi NNE 10.4 mph - N/A   Clear
11:19 PM 32.5 °F 24.8 °F 22.1 °F 65% 29.83 in 10.0 mi North 9.2 mph 16.1 mph N/A   Clear
11:40 PM 32.5 °F 23.7 °F 22.3 °F 66% 29.82 in 10.0 mi North 11.5 mph - N/A   Clear